• In Kazakhstan
  • List of Countries
  • For 7 days
  • Water Temperature
  • Satellite Maps
  • Weather Map
  • News
  • Weather Widgets
  • user-avatar
    Login

    Hourly Weather Neuquén

    Today, 16 November, Friday

    Time Temperature Precipitation Wind Pressure Humidity
    00:00 +17°C° 0 mm 2 mps 733 mmHg 16%
    01:00 +17°C° 0 mm 2 mps 733 mmHg 17%
    02:00 +17°C° 0 mm 3 mps 732 mmHg 19%
    03:00 +15°C° 0 mm 4 mps 732 mmHg 21%
    04:00 +15°C° 0 mm 5 mps 732 mmHg 23%
    05:00 +17°C° 0 mm 7 mps 732 mmHg 24%
    06:00 +18°C° 0 mm 9 mps 732 mmHg 26%
    07:00 +18°C° 0 mm 9 mps 732 mmHg 29%
    08:00 +21°C° 0 mm 10 mps 732 mmHg 27%
    09:00 +23°C° 0 mm 10 mps 731 mmHg 25%
    10:00 +26°C° 0 mm 11 mps 731 mmHg 23%
    11:00 +26°C° 0 mm 10 mps 730 mmHg 23%
    12:00 +27°C° 0 mm 9 mps 729 mmHg 23%
    13:00 +27°C° 0 mm 8 mps 728 mmHg 23%
    14:00 +27°C° 0 mm 7 mps 728 mmHg 24%
    15:00 +27°C° 0 mm 7 mps 727 mmHg 26%
    16:00 +26°C° 0 mm 6 mps 727 mmHg 27%
    17:00 +24°C° 0.1 mm 7 mps 727 mmHg 32%
    18:00 +22°C° 0.1 mm 8 mps 727 mmHg 36%
    19:00 +19°C° 0.1 mm 10 mps 728 mmHg 41%
    20:00 +18°C° 0 mm 9 mps 728 mmHg 40%
    21:00 +18°C° 0 mm 9 mps 729 mmHg 39%
    22:00 +17°C° 0 mm 9 mps 729 mmHg 38%
    23:00 +16°C° 0 mm 9 mps 730 mmHg 39%

    Tomorrow, 17 November, Saturday

    Time Temperature Precipitation Wind Pressure Humidity
    00:00 +14°C° 0 mm 10 mps 730 mmHg 39%
    01:00 +13°C° 0 mm 11 mps 730 mmHg 40%
    02:00 +12°C° 0 mm 11 mps 730 mmHg 41%
    03:00 +11°C° 0 mm 11 mps 731 mmHg 41%
    04:00 +11°C° 0 mm 11 mps 732 mmHg 42%
    05:00 +12°C° 0 mm 11 mps 732 mmHg 39%
    06:00 +13°C° 0 mm 11 mps 733 mmHg 37%
    07:00 +13°C° 0 mm 11 mps 733 mmHg 34%
    08:00 +16°C° 0 mm 11 mps 734 mmHg 30%
    09:00 +17°C° 0 mm 11 mps 734 mmHg 27%
    10:00 +19°C° 0 mm 10 mps 734 mmHg 23%
    11:00 +21°C° 0 mm 10 mps 734 mmHg 22%
    12:00 +21°C° 0 mm 10 mps 734 mmHg 21%
    13:00 +22°C° 0 mm 10 mps 733 mmHg 20%
    14:00 +22°C° 0 mm 10 mps 733 mmHg 21%
    15:00 +22°C° 0 mm 10 mps 733 mmHg 21%
    16:00 +22°C° 0 mm 10 mps 733 mmHg 21%
    17:00 +21°C° 0 mm 9 mps 733 mmHg 23%
    18:00 +20°C° 0 mm 8 mps 734 mmHg 25%
    19:00 +18°C° 0 mm 7 mps 734 mmHg 27%
    20:00 +18°C° 0 mm 8 mps 735 mmHg 31%
    21:00 +17°C° 0 mm 8 mps 735 mmHg 35%
    22:00 +16°C° 0 mm 9 mps 735 mmHg 40%
    23:00 +15°C° 0 mm 8 mps 735 mmHg 42%

    Day after tomorrow, 18 November, Sunday

    Time Temperature Precipitation Wind Pressure Humidity
    00:00 +13°C° 0 mm 8 mps 735 mmHg 45%
    01:00 +14°C° 0 mm 7 mps 735 mmHg 48%
    02:00 +12°C° 0 mm 7 mps 735 mmHg 47%
    03:00 +12°C° 0 mm 7 mps 734 mmHg 47%
    04:00 +12°C° 0 mm 7 mps 734 mmHg 47%
    05:00 +14°C° 0 mm 7 mps 734 mmHg 42%
    06:00 +15°C° 0 mm 7 mps 735 mmHg 38%
    07:00 +16°C° 0 mm 8 mps 735 mmHg 33%
    08:00 +17°C° 0 mm 7 mps 735 mmHg 29%
    09:00 +18°C° 0 mm 7 mps 735 mmHg 26%
    10:00 +20°C° 0 mm 6 mps 735 mmHg 23%
    11:00 +22°C° 0 mm 6 mps 734 mmHg 21%
    12:00 +23°C° 0 mm 7 mps 733 mmHg 19%
    13:00 +26°C° 0 mm 7 mps 733 mmHg 17%
    14:00 +26°C° 0 mm 6 mps 732 mmHg 17%
    15:00 +27°C° 0 mm 5 mps 732 mmHg 17%
    16:00 +27°C° 0 mm 5 mps 731 mmHg 17%
    17:00 +26°C° 0 mm 4 mps 731 mmHg 19%
    18:00 +25°C° 0 mm 3 mps 731 mmHg 21%
    19:00 +24°C° 0 mm 2 mps 731 mmHg 23%
    20:00 +24°C° 0 mm 3 mps 732 mmHg 25%
    21:00 +22°C° 0 mm 4 mps 732 mmHg 26%
    22:00 +22°C° 0 mm 4 mps 732 mmHg 28%
    23:00 +21°C° 0 mm 5 mps 732 mmHg 31%

    19 November, Monday

    Time Temperature Precipitation Wind Pressure Humidity
    00:00 +20°C° 0 mm 5 mps 731 mmHg 35%
    01:00 +19°C° 0 mm 5 mps 731 mmHg 38%
    02:00 +19°C° 0 mm 5 mps 731 mmHg 39%
    03:00 +17°C° 0 mm 5 mps 731 mmHg 41%
    04:00 +18°C° 0 mm 4 mps 730 mmHg 42%
    05:00 +19°C° 0 mm 5 mps 731 mmHg 39%
    06:00 +20°C° 0 mm 5 mps 731 mmHg 36%
    07:00 +22°C° 0 mm 5 mps 731 mmHg 33%
    08:00 +23°C° 0 mm 5 mps 731 mmHg 29%
    09:00 +26°C° 0 mm 5 mps 731 mmHg 26%
    10:00 +27°C° 0 mm 5 mps 731 mmHg 22%
    11:00 +28°C° 0 mm 5 mps 731 mmHg 20%
    12:00 +29°C° 0 mm 6 mps 730 mmHg 18%
    13:00 +30°C° 0 mm 6 mps 729 mmHg 17%
    14:00 +32°C° 0 mm 6 mps 729 mmHg 15%
    15:00 +33°C° 0 mm 6 mps 729 mmHg 14%
    16:00 +34°C° 0 mm 6 mps 728 mmHg 12%
    17:00 +32°C° 0 mm 6 mps 729 mmHg 14%
    18:00 +30°C° 0 mm 6 mps 729 mmHg 17%
    19:00 +29°C° 0 mm 6 mps 729 mmHg 19%
    20:00 +27°C° 0 mm 6 mps 730 mmHg 23%
    21:00 +26°C° 0 mm 6 mps 730 mmHg 28%
    22:00 +24°C° 0 mm 6 mps 731 mmHg 33%
    23:00 +23°C° 0 mm 6 mps 731 mmHg 36%

    20 November, Tuesday

    Time Temperature Precipitation Wind Pressure Humidity
    00:00 +22°C° 0 mm 6 mps 731 mmHg 39%
    01:00 +20°C° 0 mm 5 mps 731 mmHg 42%
    02:00 +20°C° 0 mm 5 mps 731 mmHg 43%
    03:00 +19°C° 0 mm 5 mps 731 mmHg 44%
    04:00 +19°C° 0 mm 5 mps 731 mmHg 44%
    05:00 +20°C° 0 mm 5 mps 731 mmHg 40%
    06:00 +21°C° 0 mm 5 mps 731 mmHg 36%
    07:00 +22°C° 0 mm 5 mps 731 mmHg 32%
    08:00 +25°C° 0 mm 4 mps 731 mmHg 29%
    09:00 +27°C° 0 mm 4 mps 731 mmHg 26%
    10:00 +28°C° 0 mm 4 mps 730 mmHg 23%
    11:00 +30°C° 0 mm 5 mps 730 mmHg 20%
    12:00 +33°C° 0 mm 6 mps 729 mmHg 17%
    13:00 +35°C° 0 mm 8 mps 729 mmHg 15%
    14:00 +35°C° 0 mm 9 mps 729 mmHg 15%
    15:00 +36°C° 0 mm 11 mps 728 mmHg 16%
    16:00 +36°C° 0 mm 12 mps 728 mmHg 16%
    17:00 +33°C° 0 mm 11 mps 728 mmHg 20%
    18:00 +32°C° 0 mm 11 mps 728 mmHg 24%
    19:00 +29°C° 0 mm 10 mps 729 mmHg 28%
    20:00 +28°C° 0 mm 9 mps 729 mmHg 31%
    21:00 +27°C° 0 mm 8 mps 729 mmHg 33%
    22:00 +26°C° 0 mm 7 mps 729 mmHg 36%
    23:00 +24°C° 0 mm 6 mps 728 mmHg 38%

    21 November, Wednesday

    Time Temperature Precipitation Wind Pressure Humidity
    00:00 +24°C° 0 mm 6 mps 728 mmHg 41%
    01:00 +23°C° 0 mm 5 mps 727 mmHg 43%
    02:00 +23°C° 0 mm 5 mps 727 mmHg 43%
    03:00 +22°C° 0 mm 6 mps 727 mmHg 43%
    04:00 +22°C° 0 mm 6 mps 726 mmHg 43%
    05:00 +24°C° 0 mm 8 mps 726 mmHg 36%
    06:00 +27°C° 0 mm 10 mps 727 mmHg 29%
    07:00 +28°C° 0 mm 12 mps 727 mmHg 22%
    08:00 +29°C° 0 mm 13 mps 726 mmHg 20%
    09:00 +32°C° 0 mm 14 mps 726 mmHg 18%
    10:00 +33°C° 0 mm 15 mps 725 mmHg 16%
    11:00 +33°C° 0 mm 16 mps 725 mmHg 19%
    12:00 +32°C° 0 mm 17 mps 725 mmHg 21%
    13:00 +32°C° 0 mm 17 mps 725 mmHg 23%
    14:00 +28°C° 0 mm 17 mps 726 mmHg 24%
    15:00 +25°C° 0 mm 17 mps 728 mmHg 24%
    16:00 +22°C° 0 mm 17 mps 729 mmHg 25%
    17:00 +19°C° 0 mm 16 mps 730 mmHg 25%
    18:00 +18°C° 0 mm 15 mps 732 mmHg 25%
    19:00 +15°C° 0 mm 14 mps 733 mmHg 25%
    20:00 +14°C° 0 mm 13 mps 734 mmHg 26%
    21:00 +13°C° 0 mm 12 mps 735 mmHg 28%
    22:00 +12°C° 0 mm 12 mps 736 mmHg 30%
    23:00 +12°C° 0 mm 10 mps 736 mmHg 31%
    Show more